Litchfield, MN

1:31 PM CST on February 25, 2017 (GMT -0600)
Litchfield Municipal

Weather History for KLJF - June, 2013

Change the Weather History Date:

Thursday, June 6, 2013

  Actual Average Record
Temperature  
Mean Temperature 54 °F -  
Max Temperature 59 °F 79 °F 97 °F (1987)
Min Temperature 50 °F 54 °F 33 °F (2008)
Degree Days  
Heating Degree Days 10    
Growing Degree Days 4 (Base 50)    
Moisture  
Dew Point 52 °F    
Average Humidity 94    
Maximum Humidity 100    
Minimum Humidity 82    
Precipitation  
Precipitation 0.00 in - - ()
Sea Level Pressure  
Sea Level Pressure 30.03 in    
Wind  
Wind Speed 7 mph (NNE)    
Max Wind Speed 9 mph    
Max Gust Speed -    
Visibility 10 miles    
Events Rain    
Averages and records for this station are not official NWS values.
T = Trace of Precipitation, MM = Missing Value Source: NWS Daily Summary

Daily Weather History Graph

Daily Weather History Graph

Search for Another Location

Airport or City:

Trip Planner

Search our weather history database for the weather conditions in past years. The results will help you decide how hot, cold, wet, or windy it might be!

Date:

Astronomy

Jun. 06, 2013 Rise Set
Actual Time 5:31 AM CDT 9:02 PM CDT
Civil Twilight 4:54 AM CDT 9:39 PM CDT
Nautical Twilight 4:06 AM CDT 10:27 PM CDT
Astronomical Twilight 3:03 AM CDT 11:31 PM CDT
Moon 4:18 AM CDT (6/6) 7:20 PM CDT (6/6)
Length of Visible Light 16h 44m
Length of Day
15h 30m
Waning Crescent, 3% of the Moon is Illuminated
Jun 6
Waning Crescent
Jun 8
New
Jun 16
First Quarter
Jun 23
Full
Jun 29
Last Quarter

Hourly Weather History & Observations

Time (CDT) Temp. Dew Point Humidity Pressure Visibility Wind Dir Wind Speed Gust Speed Precip Events Conditions
12:13 AM 55.4 °F 53.6 °F 94% 30.01 in 10.0 mi NE 6.9 mph - N/A   Overcast
12:32 AM 53.6 °F 53.6 °F 100% 30.00 in 10.0 mi NNE 8.1 mph - N/A   Overcast
12:53 AM 53.6 °F 53.6 °F 100% 30.00 in 10.0 mi NNE 8.1 mph - N/A   Overcast
1:13 AM 51.8 °F 51.8 °F 100% 30.00 in 10.0 mi NNE 8.1 mph - N/A   Overcast
1:32 AM 51.8 °F 51.8 °F 100% 30.01 in 10.0 mi NNE 5.8 mph - N/A   Overcast
1:53 AM 51.8 °F 51.8 °F 100% 30.01 in 10.0 mi NNE 6.9 mph - N/A   Overcast
2:13 AM 51.8 °F 51.8 °F 100% 30.01 in 10.0 mi NNE 6.9 mph - N/A   Overcast
2:32 AM 51.8 °F 51.8 °F 100% 30.01 in 10.0 mi North 8.1 mph - N/A   Overcast
2:53 AM 51.8 °F 51.8 °F 100% - 10.0 mi North 4.6 mph - N/A   Overcast
3:13 AM 51.8 °F 51.8 °F 100% 30.00 in 10.0 mi North 8.1 mph - N/A   Overcast
3:32 AM 51.8 °F 51.8 °F 100% 30.00 in 10.0 mi NNE 6.9 mph - N/A   Overcast
3:53 AM 51.8 °F 51.8 °F 100% 30.00 in 7.0 mi NNE 4.6 mph - N/A   Overcast
4:12 AM 51.8 °F 51.8 °F 100% 30.00 in 10.0 mi North 5.8 mph - N/A   Overcast
4:33 AM 51.8 °F 51.8 °F 100% 30.00 in 10.0 mi NNE 6.9 mph - N/A   Overcast
4:53 AM 50.0 °F 50.0 °F 100% 30.00 in 10.0 mi NNE 8.1 mph - N/A   Overcast
5:12 AM 51.8 °F 50.0 °F 94% 30.00 in 10.0 mi North 4.6 mph - N/A   Overcast
5:33 AM 51.8 °F 51.8 °F 100% 30.01 in 10.0 mi North 4.6 mph - N/A   Overcast
5:53 AM 51.8 °F 51.8 °F 100% 30.00 in 10.0 mi North 6.9 mph - N/A   Overcast
6:12 AM 51.8 °F 51.8 °F 100% 30.00 in 10.0 mi North 8.1 mph - N/A   Overcast
6:33 AM 51.8 °F 51.8 °F 100% 30.01 in 10.0 mi NNE 4.6 mph - N/A   Overcast
6:53 AM 51.8 °F 51.8 °F 100% 30.01 in 10.0 mi NNE 5.8 mph - N/A   Overcast
7:13 AM 51.8 °F 51.8 °F 100% 30.01 in 10.0 mi North 6.9 mph - N/A   Overcast
7:33 AM 51.8 °F 51.8 °F 100% 30.01 in 5.0 mi North 6.9 mph - N/A   Overcast
7:53 AM 51.8 °F 51.8 °F 100% 30.02 in 4.0 mi NNE 8.1 mph - N/A   Overcast
8:13 AM 51.8 °F 51.8 °F 100% 30.02 in 3.0 mi NNW 5.8 mph - N/A Rain Light Rain
8:33 AM 51.8 °F 51.8 °F 100% 30.02 in 10.0 mi North 8.1 mph - N/A   Overcast
8:53 AM 53.6 °F 51.8 °F 94% 30.02 in 10.0 mi NNW 5.8 mph - N/A   Overcast
9:13 AM 53.6 °F 51.8 °F 94% 30.02 in 10.0 mi North 6.9 mph - N/A   Overcast
9:33 AM 51.8 °F 51.8 °F 100% 30.03 in 10.0 mi North 6.9 mph - N/A   Overcast
9:53 AM 51.8 °F 51.8 °F 100% 30.03 in 10.0 mi NNE 6.9 mph - N/A   Overcast
10:13 AM 51.8 °F 51.8 °F 100% 30.03 in 10.0 mi NNE 8.1 mph - N/A   Overcast
10:33 AM 53.6 °F 51.8 °F 94% 30.03 in 10.0 mi NNE 4.6 mph - N/A   Overcast
10:53 AM 51.8 °F 51.8 °F 100% 30.03 in 7.0 mi NNE 5.8 mph - N/A   Overcast
11:13 AM 53.6 °F 51.8 °F 94% 30.03 in 10.0 mi North 8.1 mph - N/A   Overcast
11:33 AM 53.6 °F 51.8 °F 94% 30.04 in 7.0 mi North 6.9 mph - N/A   Overcast
11:52 AM 53.6 °F 53.6 °F 100% 30.03 in 10.0 mi NNE 4.6 mph - N/A   Overcast
12:13 PM 55.4 °F 51.8 °F 88% 30.03 in 10.0 mi North 8.1 mph - N/A   Overcast
12:32 PM 55.4 °F 51.8 °F 88% 30.04 in 10.0 mi North 5.8 mph - N/A   Overcast
12:53 PM 55.4 °F 51.8 °F 88% 30.03 in 10.0 mi NNE 8.1 mph - N/A   Overcast
1:13 PM 57.2 °F 53.6 °F 88% 30.03 in 10.0 mi North 6.9 mph - N/A   Overcast
1:33 PM 55.4 °F 53.6 °F 94% 30.03 in 10.0 mi North 9.2 mph - N/A   Overcast
1:53 PM 57.2 °F 51.8 °F 82% 30.03 in 10.0 mi North 6.9 mph - N/A   Overcast
2:12 PM 57.2 °F 53.6 °F 88% 30.03 in 10.0 mi North 6.9 mph - N/A   Overcast
2:33 PM 57.2 °F 53.6 °F 88% 30.02 in 10.0 mi North 6.9 mph - N/A   Overcast
2:53 PM 57.2 °F 53.6 °F 88% 30.02 in 10.0 mi NNE 9.2 mph - N/A   Overcast
3:12 PM 57.2 °F 53.6 °F 88% 30.03 in 10.0 mi North 6.9 mph - N/A   Overcast
3:33 PM 59.0 °F 53.6 °F 82% 30.02 in 10.0 mi North 8.1 mph - N/A   Overcast
3:53 PM 59.0 °F 53.6 °F 82% 30.02 in 10.0 mi NNE 9.2 mph - N/A   Overcast
4:12 PM 59.0 °F 53.6 °F 82% 30.02 in 10.0 mi North 5.8 mph - N/A   Overcast
4:33 PM 59.0 °F 53.6 °F 82% 30.02 in 10.0 mi North 8.1 mph - N/A   Overcast
4:53 PM 57.2 °F 53.6 °F 88% 30.03 in 10.0 mi NNE 9.2 mph - N/A   Overcast
5:13 PM 57.2 °F 51.8 °F 82% 30.03 in 10.0 mi NNE 8.1 mph - N/A   Overcast
5:33 PM 57.2 °F 51.8 °F 82% 30.03 in 10.0 mi NE 6.9 mph - N/A   Overcast
5:53 PM 57.2 °F 53.6 °F 88% 30.04 in 10.0 mi NE 5.8 mph - N/A   Overcast
6:12 PM 57.2 °F 53.6 °F 88% 30.04 in 10.0 mi NE 8.1 mph - N/A   Overcast
6:33 PM 57.2 °F 51.8 °F 82% 30.04 in 10.0 mi NE 6.9 mph - N/A   Overcast
6:53 PM 55.4 °F 53.6 °F 94% 30.04 in 10.0 mi NE 6.9 mph - N/A   Overcast
7:12 PM 55.4 °F 53.6 °F 94% 30.04 in 10.0 mi ENE 8.1 mph - N/A   Overcast
7:33 PM 55.4 °F 53.6 °F 94% 30.04 in 10.0 mi NE 3.5 mph - N/A   Overcast
7:53 PM 55.4 °F 53.6 °F 94% 30.04 in 10.0 mi NE 6.9 mph - N/A   Overcast
8:13 PM 55.4 °F 53.6 °F 94% 30.04 in 10.0 mi NNE 8.1 mph - N/A   Overcast
8:32 PM 55.4 °F 53.6 °F 94% 30.04 in 10.0 mi NNE 6.9 mph - N/A   Overcast
8:53 PM 55.4 °F 53.6 °F 94% 30.05 in 10.0 mi NE 4.6 mph - N/A   Overcast
9:13 PM 55.4 °F 53.6 °F 94% 30.05 in 10.0 mi North 4.6 mph - N/A   Overcast
9:32 PM 55.4 °F 53.6 °F 94% 30.06 in 10.0 mi North 4.6 mph - N/A   Overcast
9:53 PM 55.4 °F 53.6 °F 94% 30.06 in 10.0 mi NNE 4.6 mph - N/A   Overcast
10:13 PM 53.6 °F 51.8 °F 94% 30.06 in 10.0 mi NNE 3.5 mph - N/A   Overcast
10:32 PM 53.6 °F 51.8 °F 94% 30.06 in 10.0 mi Calm Calm - N/A   Overcast
10:53 PM 53.6 °F 51.8 °F 94% 30.05 in 10.0 mi NNE 3.5 mph - N/A   Overcast
11:13 PM 53.6 °F 51.8 °F 94% 30.06 in 10.0 mi NNE 3.5 mph - N/A   Overcast
11:33 PM 53.6 °F 51.8 °F 94% 30.06 in 10.0 mi NNE 3.5 mph - N/A   Overcast
11:53 PM 53.6 °F 53.6 °F 100% 30.05 in 10.0 mi Calm Calm - N/A   Overcast